sat.trackr.live / text

‹ back to catalog

STARLINK-35240

NORAD 65655 · 2025-211D

PAYLOAD ACTIVE UNKNOWN

§ Identity

Operator
Country
US
Launch date
2025-09-19
Launch site
AFWTR
Launch vehicle
Mass (kg)
RCS (m²)

Purposes: comms

External: N2YO · Heavens-Above · Gunter

§ Orbital elements

Epoch: 2026-05-25T01:59:23.068032Z

Period
95.64 min
Inclination
97.4533°
Eccentricity
0.0000742
Mean motion
15.05633954 rev/d
Perigee alt
549.0 km
Apogee alt
550.1 km
Semi-major
6,927.7 km
B*
-4.8465e-4
RAAN
188.9527°
Arg perigee
188.0588°
Mean anomaly
172.0627°
Rev number
3,853

§ Raw data

STARLINK-352401 65655U 25211D   26145.08290588 -.00007041  00000+0 -48465-3 0  99992 65655  97.4533 188.9527 0000742 188.0588 172.0627 15.05633954 38536

JSON: /api/v1/satellites/65655 · /tle

For live sub-satellite position, see the globe view (requires WebGL).

§ Visibility from observer

Set your observer location to see the next 7 days of passes ≥ 10°. The values pass through the URL so the page stays shareable.

No JS? Fill the form by hand. The geolocation button needs JavaScript.